सभी
Golden Grove Airport (Golden Grove, Western Australia) YGGE मौसम
|
Golden Grove, Western Australia (YGGE)
स्वच्छ आकाश
हल्की हवाएं |
|
8 °C |
YGGE Terminal Area Forecast
| Date | Time (AWST) | Flight Rules | Wind Dir. | Speed | Type | Height AGL (ft) | Visibility | Remarks | ||||||
|---|---|---|---|---|---|---|---|---|---|---|---|---|---|---|
Recent YGGE METAR history
| Date | Time (AWST) | Flight Rules | Wind Dir. | Speed | Type | Height AGL (ft) | Visibility | Temp (°C) | Temp (°F) | Dew Point (°C) | Dew Point (°F) | Rel. Humid. | Pressure | Density Altitude | Remarks |
|---|---|---|---|---|---|---|---|---|---|---|---|---|---|---|---|
| 03-मई | 03:00 | VFR | 140° | 5 kt | 10000 meters | 8° | 46° | 3° | 37° | 71% | 1023 mb | 293 ft | |||
| 03-मई | 02:00 | VFR | 130° | 5 kt | 10000 meters | 10° | 50° | 3° | 37° | 62% | 1023 mb | 533 ft | |||
| 03-मई | 01:00 | VFR | 140° | 5 kt | 10000 meters | 10° | 50° | 3° | 37° | 62% | 1023 mb | 533 ft | |||
| 03-मई | 00:00 | VFR | 140° | 5 kt | 10000 meters | 10° | 50° | 2° | 35° | 57% | 1023 mb | 533 ft | |||
| 02-मई | 23:00 | VFR | 140° | 5 kt | 10000 meters | 11° | 51° | 2° | 35° | 54% | 1023 mb | 653 ft | |||
| 02-मई | 22:00 | VFR | 140° | 6 kt | 10000 meters | 12° | 53° | 2° | 35° | 50% | 1023 mb | 773 ft | |||
| 02-मई | 21:00 | VFR | 150° | 6 kt | 10000 meters | 12° | 53° | 2° | 35° | 50% | 1023 mb | 773 ft | |||
| 02-मई | 20:00 | VFR | 150° | 7 kt | 10000 meters | 13° | 55° | 2° | 35° | 47% | 1022 mb | 923 ft | |||
| 02-मई | 19:00 | VFR | 160° | 5 kt | 10000 meters | 14° | 57° | 1° | 33° | 41% | 1022 mb | 1,043 ft | |||
| 02-मई | 18:00 | VFR | 130° | 6 kt | 10000 meters | 15° | 59° | 0° | 32° | 36% | 1021 mb | 1,192 ft | |||
| 02-मई | 17:00 | VFR | 120° | 9 kt | 10000 meters | 17° | 62° | 0° | 32° | 32% | 1021 mb | 1,432 ft | |||
| 02-मई | 16:00 | VFR | 120° | 9 kt | 10000 meters | 17° | 62° | 0° | 32° | 32% | 1021 mb | 1,432 ft | |||
| 02-मई | 15:00 | VFR | 120° | 9 kt | 10000 meters | 17° | 62° | 0° | 32° | 32% | 1021 mb | 1,432 ft | |||
| 02-मई | 14:00 | VFR | 150° | 9 kt | 10000 meters | 17° | 62° | -2° | 28° | 27% | 1022 mb | 1,403 ft | |||
| 02-मई | 13:00 | VFR | 80° | 8 kt | 10000 meters | 16° | 60° | 0° | 32° | 34% | 1022 mb | 1,283 ft | |||
| 02-मई | 12:00 | VFR | 100° | 9 kt | 10000 meters | 15° | 59° | 1° | 33° | 39% | 1023 mb | 1,133 ft | |||
| 02-मई | 11:00 | VFR | 100° | 10 kt | 10000 meters | 14° | 57° | 2° | 35° | 44% | 1024 mb | 984 ft | |||
| 02-मई | 10:00 | VFR | 100° | 13 kt | 10000 meters | 12° | 53° | 2° | 35° | 50% | 1024 mb | 744 ft | |||
| 02-मई | 09:00 | VFR | 100° | 12 kt | 10000 meters | 11° | 51° | 2° | 35° | 54% | 1024 mb | 624 ft | |||
| 02-मई | 08:00 | VFR | 120° | 11 kt | 10000 meters | 9° | 48° | 2° | 35° | 61% | 1024 mb | 384 ft | |||
| 02-मई | 07:00 | VFR | 130° | 6 kt | 10000 meters | 6° | 42° | 2° | 35° | 75% | 1023 mb | 53 ft | |||
| 02-मई | 06:00 | VFR | 130° | 6 kt | 10000 meters | 7° | 44° | 1° | 33° | 66% | 1023 mb | 173 ft | |||
| 02-मई | 05:00 | VFR | 140° | 7 kt | 10000 meters | 7° | 44° | 1° | 33° | 66% | 1023 mb | 173 ft | |||
| 02-मई | 04:00 | VFR | 150° | 5 kt | 10000 meters | 7° | 44° | 1° | 33° | 66% | 1022 mb | 203 ft |
लॉगिन
| Your browser is unsupported. अपना ब्राऊजर अपग्रेड करें |
